QPF
0.03 0.02 0.01 0.01 0.01 0.04 0.04 0.05 0.06 0.04 0.04 0.04 0.04 0.04 0.03 0.02 0.03 0.03 0.03 0.04 0.04 0.04 0.05 0.04 0.03 0.02 0.02 0.02 0.03 0.04 0.06 0.07 0.08 0.07 0.05 0.05 0.05 0.06
0.03 0.03 0.02 0.01 0.01 0.02 0.02 0.03 0.04 0.04 0.04 0.05 0.05 0.05 0.03 0.03 0.04 0.04 0.03 0.03 0.03 0.02 0.01 0.01 0.01 0.01 0.01 0.01 0.01 0.01 0.02 0.04 0.05 0.05 0.04 0.03 0.03 0.02
0.02 0.02 0.02 0.02 0.02 0.02 0.02 0.02 0.02 0.03 0.04 0.05 0.05 0.05 0.03 0.03 0.05 0.05 0.05 0.05 0.04 0.03 0.02 0.01 0.01 0.00 0.01 0.01 0.01 0.02 0.02 0.02 0.03 0.04 0.03 0.03 0.02 0.02
0.01 0.01 0.01 0.02 0.04 0.03 0.02 0.03 0.02 0.02 0.02 0.03 0.04 0.06 0.04 0.03 0.04 0.05 0.05 0.05 0.05 0.04 0.03 0.02 0.01 0.01 0.01 0.02 0.02 0.02 0.03 0.03 0.03 0.03 0.03 0.03 0.02 0.02
0.02 0.01 0.01 0.02 0.03 0.02 0.02 0.02 0.02 0.02 0.02 0.02 0.03 0.04 0.05 0.04 0.03 0.03 0.03 0.02 0.02 0.02 0.02 0.02 0.01 0.01 0.01 0.02 0.03 0.04 0.04 0.03 0.03 0.02 0.02 0.02 0.03 0.02
0.03 0.01 0.01 0.02 0.02 0.02 0.01 0.01 0.01 0.02 0.02 0.04 0.04 0.04 0.04 0.04 0.04 0.04 0.03 0.03 0.02 0.02 0.01 0.01 0.01 0.02 0.02 0.02 0.03 0.03 0.04 0.03 0.02 0.02 0.02 0.01 0.02 0.02
0.03 0.02 0.02 0.02 0.02 0.02 0.02 0.02 0.02 0.02 0.02 0.02 0.03 0.04 0.04 0.04 0.04 0.04 0.04 0.04 0.04 0.03 0.02 0.01 0.01 0.01 0.02 0.02 0.02 0.02 0.03 0.02 0.01 0.01 0.01 0.01 0.02 0.02
0.03 0.03 0.02 0.02 0.03 0.02 0.02 0.02 0.02 0.02 0.02 0.02 0.02 0.03 0.03 0.03 0.03 0.04 0.04 0.04 0.05 0.04 0.03 0.02 0.02 0.02 0.02 0.02 0.02 0.02 0.02 0.02 0.01 0.01 0.01 0.01 0.02 0.02
0.03 0.03 0.02 0.02 0.02 0.02 0.01 0.01 0.01 0.01 0.01 0.02 0.02 0.02 0.01 0.02 0.03 0.04 0.04 0.04 0.05 0.05 0.05 0.04 0.02 0.02 0.02 0.03 0.03 0.02 0.02 0.01 0.01 0.01 0.01 0.01 0.02 0.02
0.03 0.02 0.02 0.02 0.02 0.02 0.02 0.01 0.01 0.00 0.01 0.01 0.02 0.02 0.02 0.03 0.04 0.04 0.04 0.05 0.04 0.04 0.04 0.05 0.03 0.02 0.01 0.01 0.02 0.02 0.02 0.01 0.01 0.01 0.02 0.02 0.03 0.03
0.02 0.02 0.01 0.01 0.01 0.02 0.02 0.01 0.01 0.00 0.01 0.01 0.01 0.02 0.02 0.04 0.04 0.05 0.06 0.05 0.04 0.02 0.02 0.03 0.03 0.02 0.02 0.01 0.01 0.01 0.01 0.01 0.01 0.01 0.01 0.02 0.02 0.03
0.01 0.01 0.01 0.00 0.00 0.01 0.01 0.01 0.01 0.01 0.00 0.01 0.01 0.01 0.01 0.02 0.04 0.06 0.06 0.04 0.03 0.02 0.01 0.01 0.01 0.01 0.01 0.01 0.01 0.00 0.00 0.01 0.01 0.01 0.01 0.01 0.01 0.01
0.00 0.00 0.00 0.00 0.00 0.01 0.01 0.00 0.01 0.01 0.01 0.01 0.01 0.01 0.01 0.02 0.02 0.03 0.03 0.03 0.02 0.02 0.01 0.01 0.01 0.01 0.01 0.01 0.01 0.01 0.01 0.01 0.01 0.01 0.01 0.01 0.01 0.00
0.00 0.00 0.00 0.00 0.00 0.00 0.00 0.00 0.00 0.00 0.00 0.00 0.00 0.01 0.01 0.01 0.02 0.02 0.02 0.02 0.01 0.02 0.02 0.02 0.02 0.01 0.02 0.02 0.02 0.02 0.01 0.01 0.01 0.01 0.01 0.02 0.01 0.01
0.00 0.00 0.01 0.01 0.00 0.00 0.01 0.00 0.00 0.00 0.01 0.01 0.01 0.01 0.01 0.02 0.02 0.03 0.03 0.02 0.02 0.02 0.02 0.02 0.03 0.02 0.02 0.02 0.03 0.02 0.01 0.01 0.01 0.01 0.02 0.02 0.02 0.01
0.01 0.01 0.01 0.01 0.01 0.01 0.01 0.00 0.00 0.00 0.01 0.01 0.02 0.01 0.01 0.02 0.03 0.05 0.07 0.04 0.03 0.02 0.03 0.03 0.03 0.03 0.03 0.02 0.03 0.02 0.01 0.01 0.01 0.01 0.02 0.02 0.02 0.01
0.01 0.01 0.01 0.01 0.01 0.01 0.01 0.01 0.01 0.01 0.01 0.01 0.01 0.01 0.01 0.01 0.02 0.05 0.09 0.07 0.05 0.03 0.02 0.03 0.03 0.03 0.03 0.02 0.02 0.02 0.02 0.01 0.02 0.02 0.02 0.01 0.01 0.01
0.01 0.01 0.01 0.01 0.01 0.01 0.01 0.01 0.01 0.01 0.01 0.02 0.02 0.02 0.02 0.02 0.02 0.03 0.04 0.05 0.06 0.04 0.02 0.02 0.02 0.02 0.02 0.02 0.02 0.02 0.01 0.01 0.01 0.01 0.01 0.01 0.01 0.01
0.00 0.00 0.01 0.01 0.01 0.01 0.01 0.01 0.01 0.01 0.02 0.03 0.03 0.03 0.03 0.03 0.03 0.04 0.04 0.05 0.04 0.04 0.03 0.03 0.03 0.03 0.03 0.02 0.01 0.01 0.01 0.01 0.01 0.01 0.01 0.02 0.02 0.03
0.00 0.00 0.01 0.01 0.01 0.01 0.01 0.01 0.02 0.03 0.03 0.03 0.03 0.03 0.03 0.04 0.05 0.05 0.05 0.04 0.04 0.03 0.03 0.02 0.03 0.03 0.03 0.03 0.02 0.02 0.02 0.02 0.01 0.02 0.02 0.03 0.04 0.04
0.00 0.00 0.01 0.01 0.01 0.01 0.01 0.02 0.04 0.07 0.06 0.05 0.04 0.04 0.04 0.04 0.05 0.05 0.04 0.04 0.04 0.03 0.03 0.02 0.02 0.02 0.03 0.03 0.03 0.03 0.02 0.02 0.02 0.03 0.03 0.03 0.03 0.03
0.01 0.01 0.01 0.01 0.01 0.01 0.02 0.03 0.05 0.07 0.07 0.06 0.05 0.04 0.03 0.04 0.04 0.04 0.04 0.03 0.03 0.04 0.03 0.03 0.02 0.02 0.03 0.03 0.03 0.03 0.02 0.01 0.02 0.02 0.02 0.02 0.02 0.02
0.01 0.01 0.01 0.01 0.02 0.02 0.02 0.03 0.04 0.05 0.04 0.04 0.04 0.03 0.03 0.03 0.02 0.03 0.03 0.03 0.02 0.02 0.02 0.02 0.02 0.02 0.02 0.02 0.02 0.02 0.02 0.02 0.02 0.02 0.02 0.02 0.02 0.01
MSLP
1013.86 1013.52 1013.14 1012.72 1012.26 1011.75 1011.21 1010.65 1010.11 1009.59 1009.13 1008.71 1008.34 1008.00 1007.66 1007.31 1006.94 1006.55 1006.15 1005.77 1005.44 1005.18 1005.03 1004.98 1005.03 1005.16 1005.36 1005.58 1005.82 1006.07 1006.32 1006.59 1006.89 1007.24 1007.65 1008.12 1008.63 1009.16
1013.27 1012.91 1012.51 1012.09 1011.62 1011.13 1010.60 1010.08 1009.56 1009.08 1008.64 1008.24 1007.88 1007.54 1007.19 1006.83 1006.45 1006.05 1005.65 1005.27 1004.95 1004.70 1004.55 1004.51 1004.56 1004.68 1004.85 1005.05 1005.26 1005.47 1005.69 1005.92 1006.18 1006.49 1006.86 1007.29 1007.76 1008.26
1012.60 1012.22 1011.82 1011.40 1010.95 1010.48 1009.99 1009.50 1009.03 1008.59 1008.18 1007.80 1007.45 1007.11 1006.77 1006.40 1006.02 1005.62 1005.22 1004.85 1004.54 1004.32 1004.18 1004.15 1004.20 1004.32 1004.49 1004.67 1004.86 1005.05 1005.24 1005.44 1005.66 1005.94 1006.27 1006.65 1007.08 1007.54
1011.90 1011.50 1011.11 1010.70 1010.27 1009.83 1009.39 1008.95 1008.52 1008.11 1007.74 1007.39 1007.05 1006.72 1006.38 1006.03 1005.65 1005.27 1004.89 1004.55 1004.27 1004.07 1003.96 1003.95 1004.01 1004.14 1004.31 1004.49 1004.67 1004.84 1005.00 1005.18 1005.37 1005.61 1005.90 1006.24 1006.63 1007.05
1011.18 1010.78 1010.40 1010.00 1009.61 1009.20 1008.80 1008.39 1008.00 1007.63 1007.29 1006.96 1006.65 1006.34 1006.02 1005.69 1005.35 1005.00 1004.67 1004.37 1004.13 1003.98 1003.91 1003.92 1004.01 1004.15 1004.32 1004.50 1004.68 1004.84 1004.99 1005.14 1005.32 1005.53 1005.78 1006.09 1006.45 1006.84
1010.48 1010.09 1009.70 1009.33 1008.96 1008.58 1008.20 1007.83 1007.46 1007.12 1006.79 1006.49 1006.20 1005.92 1005.64 1005.36 1005.06 1004.78 1004.51 1004.28 1004.11 1004.01 1003.99 1004.05 1004.16 1004.32 1004.51 1004.69 1004.87 1005.02 1005.17 1005.31 1005.47 1005.67 1005.90 1006.19 1006.53 1006.91
1009.81 1009.42 1009.05 1008.69 1008.33 1007.97 1007.60 1007.24 1006.88 1006.55 1006.24 1005.95 1005.69 1005.45 1005.22 1004.99 1004.77 1004.56 1004.38 1004.24 1004.15 1004.12 1004.16 1004.26 1004.41 1004.59 1004.79 1004.99 1005.17 1005.33 1005.48 1005.63 1005.79 1005.98 1006.21 1006.49 1006.83 1007.21
1009.18 1008.79 1008.43 1008.07 1007.72 1007.36 1006.99 1006.62 1006.27 1005.93 1005.62 1005.35 1005.11 1004.91 1004.73 1004.57 1004.43 1004.32 1004.23 1004.17 1004.17 1004.22 1004.32 1004.47 1004.66 1004.87 1005.09 1005.31 1005.50 1005.68 1005.85 1006.01 1006.19 1006.39 1006.64 1006.94 1007.29 1007.68
1008.61 1008.22 1007.86 1007.50 1007.14 1006.77 1006.39 1006.01 1005.64 1005.29 1004.98 1004.71 1004.50 1004.33 1004.20 1004.11 1004.05 1004.02 1004.02 1004.05 1004.13 1004.25 1004.41 1004.61 1004.84 1005.08 1005.32 1005.56 1005.78 1005.99 1006.18 1006.38 1006.60 1006.83 1007.11 1007.44 1007.81 1008.23
1008.10 1007.72 1007.35 1006.99 1006.62 1006.24 1005.84 1005.43 1005.04 1004.68 1004.36 1004.10 1003.89 1003.75 1003.67 1003.63 1003.63 1003.67 1003.74 1003.85 1003.99 1004.16 1004.37 1004.61 1004.87 1005.14 1005.41 1005.68 1005.94 1006.19 1006.43 1006.67 1006.93 1007.22 1007.54 1007.91 1008.32 1008.76
1007.67 1007.29 1006.93 1006.56 1006.18 1005.78 1005.36 1004.94 1004.53 1004.15 1003.82 1003.56 1003.36 1003.24 1003.18 1003.18 1003.22 1003.31 1003.42 1003.57 1003.75 1003.96 1004.19 1004.46 1004.74 1005.03 1005.34 1005.64 1005.94 1006.23 1006.53 1006.83 1007.14 1007.49 1007.86 1008.26 1008.70 1009.16
1007.30 1006.93 1006.57 1006.20 1005.81 1005.40 1004.97 1004.54 1004.12 1003.73 1003.40 1003.13 1002.94 1002.83 1002.78 1002.80 1002.86 1002.96 1003.09 1003.26 1003.45 1003.66 1003.91 1004.18 1004.47 1004.78 1005.11 1005.44 1005.78 1006.13 1006.47 1006.83 1007.19 1007.58 1007.99 1008.43 1008.89 1009.37
1006.99 1006.63 1006.27 1005.90 1005.51 1005.09 1004.66 1004.22 1003.80 1003.41 1003.08 1002.82 1002.63 1002.52 1002.48 1002.50 1002.56 1002.66 1002.79 1002.94 1003.12 1003.32 1003.55 1003.82 1004.11 1004.43 1004.77 1005.13 1005.50 1005.88 1006.27 1006.66 1007.07 1007.49 1007.92 1008.37 1008.84 1009.31
1006.70 1006.35 1005.99 1005.62 1005.23 1004.82 1004.39 1003.95 1003.54 1003.16 1002.84 1002.59 1002.42 1002.31 1002.27 1002.28 1002.33 1002.42 1002.52 1002.65 1002.80 1002.98 1003.19 1003.44 1003.72 1004.03 1004.37 1004.74 1005.13 1005.53 1005.93 1006.34 1006.76 1007.19 1007.63 1008.07 1008.52 1008.96
1006.41 1006.06 1005.71 1005.34 1004.95 1004.53 1004.11 1003.69 1003.29 1002.93 1002.64 1002.40 1002.24 1002.15 1002.11 1002.12 1002.16 1002.23 1002.31 1002.42 1002.54 1002.69 1002.87 1003.09 1003.34 1003.64 1003.97 1004.33 1004.71 1005.10 1005.50 1005.90 1006.30 1006.70 1007.11 1007.52 1007.93 1008.34
1006.09 1005.74 1005.39 1005.01 1004.62 1004.21 1003.80 1003.39 1003.01 1002.68 1002.41 1002.21 1002.07 1002.00 1001.97 1001.99 1002.03 1002.08 1002.15 1002.23 1002.33 1002.45 1002.60 1002.79 1003.02 1003.29 1003.59 1003.92 1004.27 1004.63 1004.99 1005.35 1005.70 1006.05 1006.41 1006.76 1007.11 1007.47
1005.75 1005.39 1005.03 1004.65 1004.25 1003.84 1003.44 1003.05 1002.70 1002.40 1002.16 1001.99 1001.88 1001.83 1001.83 1001.85 1001.90 1001.96 1002.02 1002.09 1002.17 1002.27 1002.40 1002.56 1002.76 1002.99 1003.25 1003.54 1003.84 1004.14 1004.44 1004.73 1005.01 1005.29 1005.57 1005.85 1006.14 1006.44
1005.38 1005.01 1004.64 1004.26 1003.86 1003.46 1003.06 1002.69 1002.37 1002.09 1001.89 1001.74 1001.67 1001.65 1001.66 1001.71 1001.77 1001.83 1001.90 1001.96 1002.04 1002.12 1002.23 1002.37 1002.53 1002.73 1002.95 1003.18 1003.42 1003.65 1003.88 1004.09 1004.29 1004.48 1004.67 1004.88 1005.10 1005.34
1005.00 1004.64 1004.27 1003.88 1003.49 1003.10 1002.72 1002.37 1002.07 1001.82 1001.64 1001.52 1001.47 1001.47 1001.51 1001.56 1001.63 1001.70 1001.77 1001.83 1001.90 1001.98 1002.07 1002.19 1002.33 1002.49 1002.66 1002.84 1003.02 1003.18 1003.33 1003.46 1003.58 1003.69 1003.81 1003.94 1004.09 1004.28
1004.65 1004.29 1003.93 1003.56 1003.18 1002.81 1002.46 1002.13 1001.85 1001.63 1001.47 1001.37 1001.33 1001.33 1001.37 1001.43 1001.50 1001.56 1001.63 1001.69 1001.75 1001.82 1001.90 1001.99 1002.11 1002.24 1002.37 1002.51 1002.63 1002.74 1002.83 1002.90 1002.95 1003.00 1003.05 1003.12 1003.22 1003.36
1004.31 1003.98 1003.65 1003.31 1002.96 1002.62 1002.30 1002.01 1001.75 1001.55 1001.40 1001.31 1001.26 1001.26 1001.29 1001.33 1001.37 1001.42 1001.47 1001.51 1001.56 1001.61 1001.68 1001.76 1001.85 1001.96 1002.07 1002.18 1002.28 1002.35 1002.40 1002.43 1002.44 1002.45 1002.46 1002.48 1002.55 1002.65
1003.98 1003.69 1003.40 1003.11 1002.81 1002.52 1002.25 1001.99 1001.77 1001.58 1001.44 1001.34 1001.28 1001.25 1001.24 1001.25 1001.26 1001.28 1001.29 1001.31 1001.33 1001.36 1001.41 1001.48 1001.57 1001.66 1001.76 1001.86 1001.95 1002.02 1002.06 1002.08 1002.08 1002.07 1002.06 1002.07 1002.11 1002.18
1003.63 1003.39 1003.16 1002.92 1002.69 1002.46 1002.23 1002.02 1001.83 1001.67 1001.53 1001.42 1001.34 1001.28 1001.23 1001.19 1001.16 1001.13 1001.10 1001.08 1001.07 1001.09 1001.12 1001.18 1001.26 1001.35 1001.46 1001.57 1001.66 1001.74 1001.80 1001.84 1001.85 1001.85 1001.85 1001.85 1001.88 1001.93
Thickness
5595 5594 5594 5594 5594 5594 5594 5593 5593 5595 5597 5599 5600 5602 5604 5605 5607 5608 5610 5611 5613 5615 5617 5619 5621 5622 5625 5627 5629 5631 5633 5635 5637 5639 5640 5641 5642 5643
5592 5591 5591 5591 5591 5591 5592 5591 5590 5590 5592 5594 5595 5598 5600 5601 5602 5603 5604 5605 5606 5608 5610 5612 5614 5616 5618 5620 5623 5624 5626 5628 5630 5632 5633 5634 5635 5636
5589 5589 5589 5589 5588 5589 5589 5589 5588 5588 5589 5591 5591 5593 5595 5596 5597 5598 5599 5600 5602 5603 5605 5607 5608 5610 5612 5615 5617 5619 5621 5622 5624 5625 5626 5627 5628 5629
5587 5586 5586 5587 5586 5586 5586 5587 5586 5586 5586 5587 5588 5589 5591 5592 5593 5594 5595 5597 5598 5600 5602 5603 5604 5606 5608 5609 5611 5613 5615 5616 5617 5618 5619 5620 5621 5622
5586 5585 5585 5584 5584 5584 5584 5584 5584 5584 5583 5583 5584 5585 5586 5588 5589 5590 5592 5593 5595 5596 5598 5599 5601 5602 5604 5605 5607 5609 5610 5610 5611 5612 5612 5613 5614 5614
5584 5583 5583 5583 5583 5582 5582 5582 5582 5581 5580 5580 5581 5582 5583 5583 5584 5586 5588 5589 5590 5592 5594 5595 5597 5598 5599 5601 5603 5604 5604 5605 5605 5606 5606 5607 5607 5608
5583 5582 5582 5582 5582 5581 5581 5580 5580 5579 5578 5577 5578 5579 5580 5580 5581 5582 5583 5584 5586 5587 5588 5591 5592 5593 5595 5597 5598 5599 5600 5600 5600 5600 5601 5601 5601 5601
5581 5581 5581 5581 5581 5580 5579 5579 5578 5577 5576 5575 5575 5576 5577 5578 5578 5578 5579 5580 5582 5583 5583 5586 5588 5589 5591 5592 5594 5595 5596 5596 5596 5596 5595 5595 5595 5595
5579 5578 5579 5579 5578 5577 5577 5577 5577 5576 5575 5574 5574 5575 5576 5577 5577 5577 5576 5576 5577 5579 5579 5582 5584 5586 5588 5589 5591 5591 5591 5592 5592 5591 5591 5590 5590 5590
5577 5576 5575 5576 5575 5575 5575 5575 5575 5575 5574 5574 5574 5575 5575 5576 5575 5575 5574 5574 5575 5575 5575 5577 5581 5582 5585 5586 5587 5588 5588 5588 5588 5587 5586 5586 5586 5586
5576 5575 5574 5574 5574 5573 5572 5572 5573 5574 5574 5573 5574 5574 5574 5574 5573 5572 5572 5572 5574 5575 5573 5574 5578 5579 5581 5583 5584 5584 5584 5584 5584 5583 5583 5582 5582 5580
5576 5575 5574 5573 5573 5571 5570 5570 5571 5572 5572 5573 5573 5573 5574 5574 5572 5571 5572 5571 5572 5572 5573 5572 5574 5574 5577 5579 5580 5580 5580 5580 5580 5580 5579 5579 5577 5575
5575 5575 5575 5573 5571 5570 5569 5569 5569 5569 5570 5570 5571 5573 5573 5573 5573 5572 5571 5570 5571 5572 5573 5570 5571 5571 5572 5575 5576 5576 5577 5577 5577 5576 5576 5575 5574 5572
5574 5574 5574 5573 5571 5570 5570 5569 5569 5568 5568 5569 5570 5572 5573 5574 5574 5573 5572 5571 5571 5573 5573 5570 5570 5570 5569 5571 5572 5573 5573 5573 5573 5573 5573 5572 5571 5570
5574 5574 5572 5572 5571 5571 5571 5570 5569 5568 5568 5568 5570 5571 5572 5572 5572 5572 5572 5571 5571 5571 5571 5570 5569 5569 5567 5568 5569 5570 5570 5571 5570 5570 5570 5570 5569 5568
5574 5573 5571 5571 5570 5570 5570 5570 5569 5568 5567 5567 5569 5569 5569 5569 5570 5570 5570 5569 5569 5571 5571 5569 5568 5566 5566 5566 5566 5567 5567 5567 5568 5567 5566 5566 5567 5566
5572 5572 5572 5571 5570 5570 5569 5568 5567 5567 5566 5566 5566 5566 5567 5567 5567 5567 5566 5566 5566 5568 5568 5567 5565 5564 5563 5563 5563 5564 5564 5564 5564 5563 5562 5563 5564 5564
5571 5570 5570 5569 5568 5567 5567 5567 5567 5566 5566 5565 5565 5564 5565 5565 5565 5564 5563 5563 5563 5563 5563 5563 5561 5560 5559 5559 5559 5560 5561 5561 5561 5559 5558 5558 5561 5562
5569 5569 5568 5567 5566 5565 5565 5564 5564 5565 5564 5563 5563 5562 5562 5561 5561 5561 5560 5559 5559 5559 5559 5557 5556 5555 5555 5557 5559 5555 5555 5557 5556 5555 5554 5554 5556 5559
5569 5568 5567 5566 5564 5563 5563 5562 5562 5562 5561 5560 5559 5559 5558 5557 5557 5557 5557 5556 5555 5555 5555 5554 5552 5551 5551 5552 5553 5554 5552 5551 5551 5551 5551 5550 5550 5551
5569 5567 5565 5564 5563 5562 5561 5560 5559 5558 5558 5557 5556 5555 5554 5553 5553 5552 5552 5550 5549 5550 5550 5551 5551 5548 5547 5546 5546 5549 5549 5547 5547 5546 5546 5545 5546 5547
5569 5567 5565 5563 5562 5560 5559 5557 5557 5556 5554 5553 5552 5551 5550 5549 5548 5548 5547 5546 5546 5546 5546 5546 5545 5543 5542 5541 5543 5544 5544 5543 5542 5541 5540 5541 5541 5543
5568 5566 5564 5562 5560 5558 5556 5555 5553 5552 5550 5548 5547 5546 5545 5544 5543 5542 5542 5542 5541 5541 5541 5540 5540 5538 5537 5537 5536 5536 5536 5537 5537 5536 5536 5536 5535 5536